sat.trackr.live / text

‹ back to catalog

STARLINK-33558

NORAD 63643 · 2025-083K

PAYLOAD ACTIVE UNKNOWN

§ Identity

Operator
Country
US
Launch date
2025-04-25
Launch site
AFETR
Launch vehicle
Mass (kg)
RCS (m²)

Purposes: comms

External: N2YO · Heavens-Above · Gunter

§ Orbital elements

Epoch: 2026-05-24T18:12:09.970272Z

Period
94.27 min
Inclination
42.9972°
Eccentricity
0.0000929
Mean motion
15.27588943 rev/d
Perigee alt
482.4 km
Apogee alt
483.7 km
Semi-major
6,861.2 km
B*
6.4194e-4
RAAN
295.3544°
Arg perigee
289.6843°
Mean anomaly
70.3908°
Rev number
6,170

§ Raw data

STARLINK-335581 63643U 25083K   26144.75844873  .00017449  00000+0  64194-3 0  99942 63643  42.9972 295.3544 0000929 289.6843  70.3908 15.27588943 61702

JSON: /api/v1/satellites/63643 · /tle

For live sub-satellite position, see the globe view (requires WebGL).

§ Visibility from observer

Set your observer location to see the next 7 days of passes ≥ 10°. The values pass through the URL so the page stays shareable.

No JS? Fill the form by hand. The geolocation button needs JavaScript.